Time,TemperatureF,DewpointF,PressureIn,WindDirection,WindDirectionDegrees,WindSpeedMPH,WindSpeedGustMPH,Humidity,HourlyPrecipIn,Conditions,Clouds,dailyrainin,SoftwareType,DateUTC
2013-02-19 00:00:00,21.2,-3.5,30.14,East,90,0.0,2.0,33,0.00,,,0.06,meteohub,2013-02-19 05:00:00,
2013-02-19 00:01:00,21.2,-3.5,30.13,East,90,0.0,2.0,33,0.00,,,0.06,meteohub,2013-02-19 05:01:00,
2013-02-19 00:02:00,21.2,-3.5,30.13,North,0,2.0,2.0,33,0.00,,,0.06,meteohub,2013-02-19 05:02:00,
2013-02-19 00:07:00,21.4,-3.3,30.13,NE,45,1.0,2.0,33,0.00,,,0.00,meteohub,2013-02-19 05:07:00,
2013-02-19 00:12:00,21.6,-3.1,30.14,North,0,0.0,2.0,33,0.00,,,0.00,meteohub,2013-02-19 05:12:00,
2013-02-19 00:17:00,21.6,-3.8,30.14,East,90,2.0,2.0,32,0.00,,,0.00,meteohub,2013-02-19 05:17:00,
2013-02-19 00:22:00,21.4,-3.3,30.14,West,270,0.0,2.0,33,0.00,,,0.00,meteohub,2013-02-19 05:22:00,
2013-02-19 00:27:00,21.0,-2.9,30.14,SE,135,0.0,2.0,34,0.00,,,0.00,meteohub,2013-02-19 05:27:00,
2013-02-19 00:32:00,21.0,-2.9,30.14,SE,135,0.0,2.0,34,0.00,,,0.00,meteohub,2013-02-19 05:32:00,
2013-02-19 00:37:00,20.8,-2.6,30.14,SE,135,0.0,2.0,35,0.00,,,0.00,meteohub,2013-02-19 05:37:00,
2013-02-19 00:42:00,20.7,-2.7,30.14,SE,135,1.0,1.0,35,0.00,,,0.00,meteohub,2013-02-19 05:42:00,
2013-02-19 00:47:00,20.5,-2.9,30.14,SE,135,0.0,1.0,35,0.00,,,0.00,meteohub,2013-02-19 05:47:00,
2013-02-19 00:52:00,20.5,-2.9,30.14,SE,135,0.0,1.0,35,0.00,,,0.00,meteohub,2013-02-19 05:52:00,
2013-02-19 00:57:00,20.3,-2.4,30.14,SE,135,0.0,1.0,36,0.00,,,0.00,meteohub,2013-02-19 05:57:00,
2013-02-19 01:02:00,20.3,-2.4,30.14,NE,45,1.0,0.0,36,0.00,,,0.00,meteohub,2013-02-19 06:02:00,
2013-02-19 01:07:00,20.3,-2.4,30.14,SE,135,0.0,2.0,36,0.00,,,0.00,meteohub,2013-02-19 06:07:00,
2013-02-19 01:12:00,20.7,-2.0,30.14,East,90,1.0,2.0,36,0.00,,,0.00,meteohub,2013-02-19 06:12:00,
2013-02-19 01:18:00,20.7,-2.0,30.13,NW,315,0.0,2.0,36,0.00,,,0.00,meteohub,2013-02-19 06:18:00,
2013-02-19 01:23:00,20.8,-1.8,30.14,South,180,1.0,2.0,36,0.00,,,0.00,meteohub,2013-02-19 06:23:00,
2013-02-19 01:28:00,21.0,-2.4,30.14,NE,45,0.0,2.0,35,0.00,,,0.00,meteohub,2013-02-19 06:28:00,
2013-02-19 01:33:00,21.2,-2.2,30.14,East,90,1.0,1.0,35,0.00,,,0.00,meteohub,2013-02-19 06:33:00,
2013-02-19 01:38:00,21.4,-2.6,30.14,SE,135,0.0,2.0,34,0.00,,,0.00,meteohub,2013-02-19 06:38:00,
2013-02-19 01:43:00,21.4,-2.6,30.14,SE,135,0.0,2.0,34,0.00,,,0.00,meteohub,2013-02-19 06:43:00,
2013-02-19 01:48:00,21.6,-1.8,30.14,North,0,0.0,2.0,35,0.00,,,0.00,meteohub,2013-02-19 06:48:00,
2013-02-19 01:53:00,21.6,-1.8,30.15,North,0,0.0,2.0,35,0.00,,,0.00,meteohub,2013-02-19 06:53:00,
2013-02-19 01:58:00,21.6,-2.6,30.15,South,180,1.0,2.0,34,0.00,,,0.00,meteohub,2013-02-19 06:58:00,
2013-02-19 02:04:00,21.7,-2.4,30.15,SE,135,0.0,1.0,34,0.00,,,0.00,meteohub,2013-02-19 07:04:00,
2013-02-19 02:09:00,21.9,-1.5,30.15,North,0,0.0,1.0,35,0.00,,,0.00,meteohub,2013-02-19 07:09:00,
2013-02-19 02:14:00,22.1,-0.8,30.14,North,0,0.0,1.0,36,0.00,,,0.00,meteohub,2013-02-19 07:14:00,
2013-02-19 02:19:00,22.3,-0.6,30.14,North,0,0.0,1.0,36,0.00,,,0.00,meteohub,2013-02-19 07:19:00,
2013-02-19 02:24:00,22.5,-0.4,30.14,North,0,0.0,1.0,36,0.00,,,0.00,meteohub,2013-02-19 07:24:00,
2013-02-19 02:29:00,22.5,-0.4,30.14,North,0,0.0,0.0,36,0.00,,,0.00,meteohub,2013-02-19 07:29:00,
2013-02-19 02:34:00,22.6,-0.2,30.14,East,90,0.0,1.0,36,0.00,,,0.00,meteohub,2013-02-19 07:34:00,
2013-02-19 02:39:00,22.6,-0.2,30.13,South,180,0.0,2.0,36,0.00,,,0.00,meteohub,2013-02-19 07:39:00,
2013-02-19 02:44:00,22.6,-0.9,30.14,NE,45,0.0,2.0,35,0.00,,,0.00,meteohub,2013-02-19 07:44:00,
2013-02-19 02:49:00,22.5,-1.1,30.14,NW,315,0.0,2.0,35,0.00,,,0.00,meteohub,2013-02-19 07:49:00,
2013-02-19 02:55:00,22.3,-1.3,30.14,NW,315,0.0,2.0,35,0.00,,,0.00,meteohub,2013-02-19 07:55:00,
2013-02-19 03:00:00,22.1,-1.3,30.13,NW,315,0.0,2.0,35,0.00,,,0.00,meteohub,2013-02-19 08:00:00,
2013-02-19 03:05:00,21.7,-1.7,30.14,NW,315,0.0,0.0,35,0.00,,,0.00,meteohub,2013-02-19 08:05:00,
2013-02-19 03:10:00,21.6,-1.3,30.13,NW,315,0.0,0.0,36,0.00,,,0.00,meteohub,2013-02-19 08:10:00,
2013-02-19 03:15:00,21.4,-1.5,30.13,NW,315,0.0,1.0,36,0.00,,,0.00,meteohub,2013-02-19 08:15:00,
2013-02-19 03:20:00,21.4,-0.9,30.13,NW,315,0.0,1.0,37,0.00,,,0.00,meteohub,2013-02-19 08:20:00,
2013-02-19 03:25:00,21.2,-0.9,30.13,NW,315,0.0,0.0,37,0.00,,,0.00,meteohub,2013-02-19 08:25:00,
2013-02-19 03:30:00,21.2,-0.9,30.13,NW,315,0.0,0.0,37,0.00,,,0.00,meteohub,2013-02-19 08:30:00,
2013-02-19 03:35:00,21.0,0.0,30.13,NW,315,0.0,0.0,39,0.00,,,0.00,meteohub,2013-02-19 08:35:00,
2013-02-19 03:41:00,21.0,0.0,30.12,NW,315,0.0,0.0,39,0.00,,,0.00,meteohub,2013-02-19 08:41:00,
2013-02-19 03:46:00,21.0,0.0,30.12,NW,315,0.0,0.0,39,0.00,,,0.00,meteohub,2013-02-19 08:46:00,
2013-02-19 03:51:00,21.2,0.1,30.12,NW,315,0.0,0.0,39,0.00,,,0.00,meteohub,2013-02-19 08:51:00,
2013-02-19 03:56:00,21.6,1.0,30.12,NW,315,0.0,0.0,40,0.00,,,0.00,meteohub,2013-02-19 08:56:00,
2013-02-19 04:01:00,21.9,1.8,30.12,NW,315,0.0,0.0,41,0.00,,,0.00,meteohub,2013-02-19 09:01:00,
2013-02-19 04:06:00,21.7,1.6,30.12,NW,315,0.0,0.0,41,0.00,,,0.00,meteohub,2013-02-19 09:06:00,
2013-02-19 04:11:00,21.7,1.6,30.11,NW,315,0.0,0.0,41,0.00,,,0.00,meteohub,2013-02-19 09:11:00,
2013-02-19 04:16:00,21.6,1.6,30.11,NW,315,1.0,0.0,41,0.00,,,0.00,meteohub,2013-02-19 09:16:00,
2013-02-19 04:21:00,21.7,1.6,30.12,NW,315,0.0,2.0,41,0.00,,,0.00,meteohub,2013-02-19 09:21:00,
2013-02-19 04:26:00,21.9,2.3,30.11,NW,315,0.0,2.0,42,0.00,,,0.00,meteohub,2013-02-19 09:26:00,
2013-02-19 04:31:00,22.1,2.5,30.11,NW,315,0.0,2.0,42,0.00,,,0.00,meteohub,2013-02-19 09:31:00,
2013-02-19 04:37:00,22.3,2.7,30.11,NW,315,0.0,0.0,42,0.00,,,0.00,meteohub,2013-02-19 09:37:00,
2013-02-19 04:42:00,22.6,3.0,30.11,NW,315,0.0,0.0,42,0.00,,,0.00,meteohub,2013-02-19 09:42:00,
2013-02-19 04:47:00,23.0,3.4,30.11,NW,315,0.0,0.0,42,0.00,,,0.00,meteohub,2013-02-19 09:47:00,
2013-02-19 04:52:00,23.2,3.6,30.11,NW,315,0.0,0.0,42,0.00,,,0.00,meteohub,2013-02-19 09:52:00,
2013-02-19 04:57:00,23.5,3.7,30.11,NW,315,0.0,0.0,42,0.00,,,0.00,meteohub,2013-02-19 09:57:00,
2013-02-19 05:02:00,23.7,3.9,30.11,NW,315,0.0,0.0,42,0.00,,,0.00,meteohub,2013-02-19 10:02:00,
2013-02-19 05:07:00,23.9,4.1,30.11,NW,315,1.0,0.0,42,0.00,,,0.00,meteohub,2013-02-19 10:07:00,
2013-02-19 05:12:00,24.1,4.8,30.12,NW,315,2.0,2.0,43,0.00,,,0.00,meteohub,2013-02-19 10:12:00,
2013-02-19 05:17:00,24.3,5.0,30.11,West,270,2.0,2.0,43,0.00,,,0.00,meteohub,2013-02-19 10:17:00,
2013-02-19 05:22:00,24.3,5.0,30.11,West,270,0.0,2.0,43,0.00,,,0.00,meteohub,2013-02-19 10:22:00,
2013-02-19 05:27:00,24.4,4.6,30.11,NW,315,0.0,4.0,42,0.00,,,0.00,meteohub,2013-02-19 10:27:00,
2013-02-19 05:32:00,24.6,4.8,30.12,West,270,1.0,4.0,42,0.00,,,0.00,meteohub,2013-02-19 10:32:00,
2013-02-19 05:37:00,24.8,3.9,30.11,West,270,0.0,4.0,40,0.00,,,0.00,meteohub,2013-02-19 10:37:00,
2013-02-19 05:42:00,25.0,3.6,30.11,West,270,1.0,2.0,39,0.00,,,0.00,meteohub,2013-02-19 10:42:00,
2013-02-19 05:47:00,25.0,3.6,30.12,West,270,2.0,3.0,39,0.00,,,0.00,meteohub,2013-02-19 10:47:00,
2013-02-19 05:52:00,25.2,3.7,30.11,North,0,2.0,3.0,39,0.00,,,0.00,meteohub,2013-02-19 10:52:00,
2013-02-19 05:58:00,25.2,3.7,30.11,West,270,0.0,3.0,39,0.00,,,0.00,meteohub,2013-02-19 10:58:00,
2013-02-19 06:03:00,25.2,3.7,30.11,North,0,1.0,2.0,39,0.00,,,0.00,meteohub,2013-02-19 11:03:00,
2013-02-19 06:08:00,25.3,3.9,30.10,West,270,0.0,2.0,39,0.00,,,0.00,meteohub,2013-02-19 11:08:00,
2013-02-19 06:13:00,25.5,3.9,30.10,South,180,1.0,2.0,39,0.00,,,0.00,meteohub,2013-02-19 11:13:00,
2013-02-19 06:18:00,25.7,4.1,30.10,West,270,0.0,2.0,39,0.00,,,0.00,meteohub,2013-02-19 11:18:00,
2013-02-19 06:23:00,25.9,4.3,30.10,West,270,0.0,2.0,39,0.00,,,0.00,meteohub,2013-02-19 11:23:00,
2013-02-19 06:28:00,26.1,4.5,30.10,NW,315,0.0,2.0,39,0.00,,,0.00,meteohub,2013-02-19 11:28:00,
2013-02-19 06:33:00,26.2,4.6,30.10,South,180,0.0,2.0,39,0.00,,,0.00,meteohub,2013-02-19 11:33:00,
2013-02-19 06:38:00,26.2,4.6,30.10,South,180,0.0,2.0,39,0.00,,,0.00,meteohub,2013-02-19 11:38:00,
2013-02-19 06:43:00,26.2,5.2,30.10,West,270,2.0,2.0,40,0.00,,,0.00,meteohub,2013-02-19 11:43:00,
2013-02-19 06:48:00,26.6,4.5,30.10,West,270,0.0,2.0,38,0.00,,,0.00,meteohub,2013-02-19 11:48:00,
2013-02-19 06:53:00,26.6,5.0,30.10,West,270,1.0,2.0,39,0.00,,,0.00,meteohub,2013-02-19 11:53:00,
2013-02-19 06:58:00,27.0,4.6,30.10,West,270,0.0,2.0,38,0.00,,,0.00,meteohub,2013-02-19 11:58:00,
2013-02-19 07:04:00,27.1,4.8,30.10,West,270,2.0,2.0,38,0.00,,,0.00,meteohub,2013-02-19 12:04:00,
2013-02-19 07:09:00,27.1,4.8,30.10,West,270,2.0,2.0,38,0.00,,,0.00,meteohub,2013-02-19 12:09:00,
2013-02-19 07:14:00,27.1,3.7,30.10,West,270,1.0,2.0,36,0.00,,,0.00,meteohub,2013-02-19 12:14:00,
2013-02-19 07:19:00,27.3,3.9,30.09,West,270,1.0,3.0,36,0.00,,,0.00,meteohub,2013-02-19 12:19:00,
2013-02-19 07:24:00,27.5,4.1,30.09,West,270,0.0,3.0,36,0.00,,,0.00,meteohub,2013-02-19 12:24:00,
2013-02-19 07:29:00,27.5,4.1,30.08,West,270,1.0,3.0,36,0.00,,,0.00,meteohub,2013-02-19 12:29:00,
2013-02-19 07:34:00,27.7,4.3,30.09,West,270,1.0,2.0,36,0.00,,,0.00,meteohub,2013-02-19 12:34:00,
2013-02-19 07:39:00,28.2,5.9,30.09,West,270,0.0,2.0,38,0.00,,,0.00,meteohub,2013-02-19 12:39:00,
2013-02-19 07:44:00,28.8,8.6,30.08,West,270,1.0,2.0,42,0.00,,,0.00,meteohub,2013-02-19 12:44:00,
2013-02-19 07:49:00,29.5,9.1,30.08,West,270,1.0,2.0,42,0.00,,,0.00,meteohub,2013-02-19 12:49:00,
2013-02-19 07:55:00,30.9,10.0,30.08,West,270,1.0,2.0,41,0.00,,,0.00,meteohub,2013-02-19 12:55:00,
2013-02-19 08:00:00,32.2,10.0,30.08,NW,315,1.0,2.0,39,0.00,,,0.00,meteohub,2013-02-19 13:00:00,
2013-02-19 08:05:00,34.9,10.6,30.08,West,270,1.0,2.0,36,0.00,,,0.00,meteohub,2013-02-19 13:05:00,
2013-02-19 08:10:00,37.2,10.8,30.08,SW,225,2.0,2.0,33,0.00,,,0.00,meteohub,2013-02-19 13:10:00,
2013-02-19 08:15:00,39.2,13.1,30.08,West,270,2.0,2.0,34,0.00,,,0.00,meteohub,2013-02-19 13:15:00,
2013-02-19 08:20:00,41.5,13.8,30.07,West,270,1.0,2.0,32,0.00,,,0.00,meteohub,2013-02-19 13:20:00,
2013-02-19 08:25:00,41.9,12.7,30.08,NW,315,2.0,2.0,30,0.00,,,0.00,meteohub,2013-02-19 13:25:00,
2013-02-19 08:30:00,42.3,13.8,30.07,NW,315,2.0,2.0,31,0.00,,,0.00,meteohub,2013-02-19 13:30:00,
2013-02-19 08:35:00,42.1,13.6,30.08,West,270,2.0,4.0,31,0.00,,,0.00,meteohub,2013-02-19 13:35:00,
2013-02-19 08:40:00,42.3,13.1,30.08,NW,315,2.0,4.0,30,0.00,,,0.00,meteohub,2013-02-19 13:40:00,
2013-02-19 08:45:00,41.7,12.6,30.07,West,270,3.0,4.0,30,0.00,,,0.00,meteohub,2013-02-19 13:45:00,
2013-02-19 08:50:00,39.9,11.7,30.08,NW,315,2.0,4.0,31,0.00,,,0.00,meteohub,2013-02-19 13:50:00,
2013-02-19 08:56:00,40.5,12.9,30.07,SW,225,2.0,4.0,32,0.00,,,0.00,meteohub,2013-02-19 13:56:00,
2013-02-19 09:01:00,42.1,14.4,30.07,West,270,2.0,4.0,32,0.00,,,0.00,meteohub,2013-02-19 14:01:00,
2013-02-19 09:06:00,42.3,13.8,30.07,NW,315,2.0,3.0,31,0.00,,,0.00,meteohub,2013-02-19 14:06:00,
2013-02-19 09:11:00,41.9,13.5,30.07,NW,315,2.0,2.0,31,0.00,,,0.00,meteohub,2013-02-19 14:11:00,
2013-02-19 09:16:00,43.2,15.3,30.06,South,180,2.0,3.0,32,0.00,,,0.00,meteohub,2013-02-19 14:16:00,
2013-02-19 09:21:00,44.6,15.1,30.06,North,0,2.0,3.0,30,0.00,,,0.00,meteohub,2013-02-19 14:21:00,
2013-02-19 09:26:00,45.7,16.0,30.07,West,270,3.0,3.0,30,0.00,,,0.00,meteohub,2013-02-19 14:26:00,
2013-02-19 09:31:00,46.4,18.1,30.06,NW,315,2.0,3.0,32,0.00,,,0.00,meteohub,2013-02-19 14:31:00,
2013-02-19 09:36:00,46.6,18.3,30.06,WNW,293,1.0,3.0,32,0.00,,,0.00,meteohub,2013-02-19 14:36:00,
2013-02-19 09:41:00,47.7,19.2,30.06,NW,315,3.0,3.0,32,0.00,,,0.00,meteohub,2013-02-19 14:41:00,
2013-02-19 09:47:00,47.5,19.0,30.06,West,270,2.0,8.0,32,0.00,,,0.00,meteohub,2013-02-19 14:47:00,
2013-02-19 09:52:00,48.2,19.0,30.06,NW,315,2.0,8.0,31,0.00,,,0.00,meteohub,2013-02-19 14:52:00,
2013-02-19 09:57:00,48.7,20.1,30.06,SW,225,4.0,8.0,32,0.00,,,0.00,meteohub,2013-02-19 14:57:00,
2013-02-19 10:02:00,47.7,19.9,30.05,SW,225,3.0,4.0,33,0.00,,,0.00,meteohub,2013-02-19 15:02:00,
2013-02-19 10:07:00,46.8,19.2,30.05,West,270,4.0,4.0,33,0.00,,,0.00,meteohub,2013-02-19 15:07:00,
2013-02-19 10:12:00,46.0,20.5,30.04,NW,315,4.0,6.0,36,0.00,,,0.00,meteohub,2013-02-19 15:12:00,
2013-02-19 10:17:00,46.2,21.9,30.04,NW,315,3.0,6.0,38,0.00,,,0.00,meteohub,2013-02-19 15:17:00,
2013-02-19 10:22:00,45.9,21.7,30.04,WNW,293,1.0,6.0,38,0.00,,,0.00,meteohub,2013-02-19 15:22:00,
2013-02-19 10:27:00,46.2,21.9,30.04,NW,315,2.0,4.0,38,0.00,,,0.00,meteohub,2013-02-19 15:27:00,
2013-02-19 10:32:00,45.5,21.4,30.04,WNW,293,4.0,4.0,38,0.00,,,0.00,meteohub,2013-02-19 15:32:00,
2013-02-19 10:37:00,45.3,21.7,30.04,NW,315,2.0,4.0,39,0.00,,,0.00,meteohub,2013-02-19 15:37:00,
2013-02-19 10:42:00,46.4,23.4,30.04,West,270,2.0,4.0,40,0.00,,,0.00,meteohub,2013-02-19 15:42:00,
2013-02-19 10:47:00,47.1,23.4,30.03,NW,315,4.0,4.0,39,0.00,,,0.00,meteohub,2013-02-19 15:47:00,
2013-02-19 10:52:00,47.1,22.8,30.03,West,270,3.0,4.0,38,0.00,,,0.00,meteohub,2013-02-19 15:52:00,
2013-02-19 10:57:00,47.3,23.5,30.03,NW,315,4.0,4.0,39,0.00,,,0.00,meteohub,2013-02-19 15:57:00,
2013-02-19 11:02:00,46.6,23.0,30.03,NW,315,7.0,7.0,39,0.00,,,0.00,meteohub,2013-02-19 16:02:00,
2013-02-19 11:07:00,46.0,23.0,30.04,West,270,4.0,7.0,40,0.00,,,0.00,meteohub,2013-02-19 16:07:00,
2013-02-19 11:12:00,46.2,23.9,30.03,NW,315,4.0,7.0,41,0.00,,,0.00,meteohub,2013-02-19 16:12:00,
2013-02-19 11:17:00,46.4,24.6,30.03,NW,315,2.0,7.0,42,0.00,,,0.00,meteohub,2013-02-19 16:17:00,
2013-02-19 11:22:00,46.0,23.0,30.03,West,270,4.0,7.0,40,0.00,,,0.00,meteohub,2013-02-19 16:22:00,
2013-02-19 11:27:00,46.0,23.7,30.03,NW,315,2.0,7.0,41,0.00,,,0.00,meteohub,2013-02-19 16:27:00,
2013-02-19 11:32:00,46.8,24.8,30.02,NW,315,2.0,6.0,42,0.00,,,0.00,meteohub,2013-02-19 16:32:00,
2013-02-19 11:37:00,48.0,26.1,30.01,NE,45,2.0,5.0,42,0.00,,,0.00,meteohub,2013-02-19 16:37:00,
2013-02-19 11:42:00,49.5,25.5,30.01,WNW,293,2.0,4.0,39,0.00,,,0.00,meteohub,2013-02-19 16:42:00,
2013-02-19 11:47:00,49.8,24.6,30.01,NW,315,1.0,4.0,37,0.00,,,0.00,meteohub,2013-02-19 16:47:00,
2013-02-19 11:52:00,49.5,24.3,30.00,NW,315,5.0,6.0,37,0.00,,,0.00,meteohub,2013-02-19 16:52:00,
2013-02-19 11:57:00,48.0,24.8,29.99,NW,315,6.0,6.0,40,0.00,,,0.00,meteohub,2013-02-19 16:57:00,
2013-02-19 12:02:00,48.6,25.9,29.99,West,270,4.0,7.0,41,0.00,,,0.00,meteohub,2013-02-19 17:02:00,
2013-02-19 12:07:00,49.1,26.4,29.99,West,270,2.0,7.0,41,0.00,,,0.00,meteohub,2013-02-19 17:07:00,
2013-02-19 12:12:00,49.8,27.1,29.99,South,180,2.0,7.0,41,0.00,,,0.00,meteohub,2013-02-19 17:12:00,
2013-02-19 12:17:00,50.9,26.8,29.98,West,270,2.0,4.0,39,0.00,,,0.00,meteohub,2013-02-19 17:17:00,
2013-02-19 12:22:00,50.5,25.9,29.98,NW,315,3.0,9.0,38,0.00,,,0.00,meteohub,2013-02-19 17:22:00,
2013-02-19 12:27:00,50.4,25.7,29.96,West,270,2.0,9.0,38,0.00,,,0.00,meteohub,2013-02-19 17:27:00,
2013-02-19 12:32:00,50.7,27.3,29.96,NW,315,2.0,9.0,40,0.00,,,0.00,meteohub,2013-02-19 17:32:00,
2013-02-19 12:37:00,50.7,26.6,29.96,NW,315,2.0,8.0,39,0.00,,,0.00,meteohub,2013-02-19 17:37:00,
2013-02-19 12:42:00,50.0,26.6,29.96,NW,315,4.0,8.0,40,0.00,,,0.00,meteohub,2013-02-19 17:42:00,
2013-02-19 12:47:00,50.2,26.8,29.96,West,270,3.0,8.0,40,0.00,,,0.00,meteohub,2013-02-19 17:47:00,
2013-02-19 12:52:00,50.7,27.3,29.95,NW,315,4.0,8.0,40,0.00,,,0.00,meteohub,2013-02-19 17:52:00,
2013-02-19 12:57:00,50.7,27.3,29.95,NW,315,4.0,6.0,40,0.00,,,0.00,meteohub,2013-02-19 17:57:00,
2013-02-19 13:02:00,49.6,27.0,29.94,WNW,293,4.0,6.0,41,0.00,,,0.00,meteohub,2013-02-19 18:02:00,
2013-02-19 13:07:00,48.9,26.8,29.94,NW,315,6.0,6.0,42,0.00,,,0.00,meteohub,2013-02-19 18:07:00,
2013-02-19 13:12:00,48.6,27.1,29.94,NW,315,4.0,6.0,43,0.00,,,0.00,meteohub,2013-02-19 18:12:00,
2013-02-19 13:17:00,48.7,27.3,29.93,WNW,293,2.0,6.0,43,0.00,,,0.00,meteohub,2013-02-19 18:17:00,
2013-02-19 13:22:00,48.6,27.7,29.93,NW,315,8.0,8.0,44,0.00,,,0.00,meteohub,2013-02-19 18:22:00,
2013-02-19 13:27:00,48.2,27.3,29.93,WNW,293,4.0,8.0,44,0.00,,,0.00,meteohub,2013-02-19 18:27:00,
2013-02-19 13:32:00,48.0,28.2,29.93,West,270,3.0,8.0,46,0.00,,,0.00,meteohub,2013-02-19 18:32:00,
2013-02-19 13:37:00,47.8,28.0,29.93,NW,315,3.0,8.0,46,0.00,,,0.00,meteohub,2013-02-19 18:37:00,
2013-02-19 13:42:00,47.8,28.0,29.92,West,270,1.0,6.0,46,0.00,,,0.00,meteohub,2013-02-19 18:42:00,
2013-02-19 13:47:00,48.0,28.2,29.92,West,270,4.0,5.0,46,0.00,,,0.00,meteohub,2013-02-19 18:47:00,
2013-02-19 13:52:00,48.2,27.9,29.92,NW,315,2.0,5.0,45,0.00,,,0.00,meteohub,2013-02-19 18:52:00,
2013-02-19 13:57:00,48.0,28.2,29.91,NW,315,2.0,4.0,46,0.00,,,0.00,meteohub,2013-02-19 18:57:00,
2013-02-19 14:02:00,48.2,27.9,29.91,NW,315,3.0,14.0,45,0.00,,,0.00,meteohub,2013-02-19 19:02:00,
2013-02-19 14:07:00,48.4,27.5,29.91,West,270,4.0,14.0,44,0.00,,,0.00,meteohub,2013-02-19 19:07:00,
2013-02-19 14:12:00,48.6,27.7,29.90,NW,315,2.0,14.0,44,0.00,,,0.00,meteohub,2013-02-19 19:12:00,
2013-02-19 14:17:00,48.2,27.3,29.90,WNW,293,4.0,6.0,44,0.00,,,0.00,meteohub,2013-02-19 19:17:00,
2013-02-19 14:22:00,47.8,27.5,29.90,NW,315,4.0,6.0,45,0.00,,,0.00,meteohub,2013-02-19 19:22:00,
2013-02-19 14:27:00,47.7,27.9,29.90,West,270,4.0,6.0,46,0.00,,,0.00,meteohub,2013-02-19 19:27:00,
2013-02-19 14:32:00,47.3,27.5,29.90,NW,315,4.0,5.0,46,0.00,,,0.00,meteohub,2013-02-19 19:32:00,
2013-02-19 14:37:00,47.1,27.9,29.90,West,270,4.0,6.0,47,0.00,,,0.00,meteohub,2013-02-19 19:37:00,
2013-02-19 14:42:00,47.1,28.4,29.88,South,180,4.0,6.0,48,0.00,,,0.00,meteohub,2013-02-19 19:42:00,
2013-02-19 14:47:00,46.9,28.2,29.89,NW,315,4.0,6.0,48,0.00,,,0.00,meteohub,2013-02-19 19:47:00,
2013-02-19 14:52:00,46.8,28.6,29.88,West,270,2.0,6.0,49,0.00,,,0.00,meteohub,2013-02-19 19:52:00,
2013-02-19 14:57:00,46.6,28.9,29.88,East,90,4.0,6.0,50,0.00,,,0.00,meteohub,2013-02-19 19:57:00,
2013-02-19 15:02:00,46.6,28.9,29.87,NW,315,2.0,5.0,50,0.00,,,0.00,meteohub,2013-02-19 20:02:00,
2013-02-19 15:07:00,46.4,28.8,29.87,West,270,3.0,5.0,50,0.00,,,0.00,meteohub,2013-02-19 20:07:00,
2013-02-19 15:12:00,46.4,29.3,29.87,NW,315,2.0,5.0,51,0.00,,,0.00,meteohub,2013-02-19 20:12:00,
2013-02-19 15:17:00,46.2,28.6,29.87,NNW,338,5.0,5.0,50,0.00,,,0.00,meteohub,2013-02-19 20:17:00,
2013-02-19 15:22:00,46.2,28.6,29.86,West,270,2.0,7.0,50,0.00,,,0.00,meteohub,2013-02-19 20:22:00,
2013-02-19 15:27:00,46.0,28.9,29.85,WNW,293,4.0,11.0,51,0.00,,,0.00,meteohub,2013-02-19 20:27:00,
2013-02-19 15:32:00,46.0,28.9,29.86,NW,315,3.0,11.0,51,0.00,,,0.00,meteohub,2013-02-19 20:32:00,
2013-02-19 15:37:00,46.4,30.2,29.85,WNW,293,5.0,11.0,53,0.00,,,0.00,meteohub,2013-02-19 20:37:00,
2013-02-19 15:42:00,46.4,30.2,29.85,NW,315,4.0,6.0,53,0.00,,,0.00,meteohub,2013-02-19 20:42:00,
2013-02-19 15:47:00,46.2,30.0,29.85,NW,315,6.0,7.0,53,0.00,,,0.00,meteohub,2013-02-19 20:47:00,
2013-02-19 15:52:00,46.2,30.6,29.84,West,270,4.0,7.0,54,0.00,,,0.00,meteohub,2013-02-19 20:52:00,
2013-02-19 15:57:00,46.2,30.9,29.83,WNW,293,4.0,7.0,55,0.00,,,0.00,meteohub,2013-02-19 20:57:00,
2013-02-19 16:02:00,46.4,31.6,29.83,West,270,4.0,6.0,56,0.00,,,0.00,meteohub,2013-02-19 21:02:00,
2013-02-19 16:07:00,46.6,32.2,29.83,West,270,8.0,8.0,57,0.00,,,0.00,meteohub,2013-02-19 21:07:00,
2013-02-19 16:12:00,46.4,32.0,29.83,West,270,3.0,8.0,57,0.00,,,0.00,meteohub,2013-02-19 21:12:00,
2013-02-19 16:17:00,46.0,32.5,29.82,NW,315,4.0,8.0,59,0.00,,,0.00,meteohub,2013-02-19 21:17:00,
2013-02-19 16:22:00,45.9,32.7,29.83,West,270,4.0,8.0,60,0.00,,,0.00,meteohub,2013-02-19 21:22:00,
2013-02-19 16:27:00,45.5,33.6,29.82,West,270,3.0,8.0,63,0.00,,,0.00,meteohub,2013-02-19 21:27:00,
2013-02-19 16:32:00,45.0,34.3,29.82,West,270,4.0,8.0,66,0.00,,,0.00,meteohub,2013-02-19 21:32:00,
2013-02-19 16:37:00,44.4,35.2,29.82,West,270,4.0,4.0,70,0.00,,,0.00,meteohub,2013-02-19 21:37:00,
2013-02-19 16:42:00,44.1,35.6,29.82,West,270,3.0,4.0,72,0.00,,,0.00,meteohub,2013-02-19 21:42:00,
2013-02-19 16:47:00,43.7,36.0,29.82,WNW,293,3.0,4.0,74,0.01,,,0.01,meteohub,2013-02-19 21:47:00,
2013-02-19 16:52:00,43.5,36.5,29.82,NW,315,3.0,4.0,76,0.01,,,0.01,meteohub,2013-02-19 21:52:00,
2013-02-19 16:58:00,43.5,37.0,29.81,West,270,2.0,5.0,78,0.01,,,0.01,meteohub,2013-02-19 21:58:00,
2013-02-19 17:03:00,43.2,37.0,29.81,NW,315,2.0,5.0,79,0.01,,,0.01,meteohub,2013-02-19 22:03:00,
2013-02-19 17:08:00,43.0,36.9,29.81,WNW,293,2.0,4.0,79,0.01,,,0.01,meteohub,2013-02-19 22:08:00,
2013-02-19 17:13:00,42.8,37.0,29.81,North,0,2.0,3.0,80,0.01,,,0.01,meteohub,2013-02-19 22:13:00,
2013-02-19 17:18:00,42.8,37.0,29.80,West,270,2.0,3.0,80,0.01,,,0.01,meteohub,2013-02-19 22:18:00,
2013-02-19 17:23:00,42.8,37.4,29.79,West,270,2.0,3.0,81,0.01,,,0.01,meteohub,2013-02-19 22:23:00,
2013-02-19 17:28:00,42.8,37.4,29.79,West,270,4.0,4.0,81,0.01,,,0.01,meteohub,2013-02-19 22:28:00,
2013-02-19 17:33:00,42.8,37.4,29.79,NW,315,2.0,2.0,81,0.01,,,0.01,meteohub,2013-02-19 22:33:00,
2013-02-19 17:38:00,42.6,37.6,29.78,West,270,2.0,4.0,82,0.01,,,0.01,meteohub,2013-02-19 22:38:00,
2013-02-19 17:43:00,42.6,37.8,29.78,West,270,1.0,4.0,83,0.01,,,0.01,meteohub,2013-02-19 22:43:00,
2013-02-19 17:48:00,42.4,37.6,29.78,West,270,2.0,4.0,83,0.00,,,0.01,meteohub,2013-02-19 22:48:00,
2013-02-19 17:53:00,42.3,37.4,29.77,West,270,3.0,4.0,83,0.00,,,0.01,meteohub,2013-02-19 22:53:00,
2013-02-19 17:58:00,42.3,37.8,29.77,West,270,2.0,3.0,84,0.00,,,0.01,meteohub,2013-02-19 22:58:00,
2013-02-19 18:03:00,42.1,37.6,29.76,West,270,3.0,3.0,84,0.00,,,0.01,meteohub,2013-02-19 23:03:00,
2013-02-19 18:09:00,41.9,37.4,29.75,West,270,2.0,3.0,84,0.00,,,0.01,meteohub,2013-02-19 23:09:00,
2013-02-19 18:14:00,41.9,37.8,29.75,West,270,2.0,3.0,85,0.00,,,0.01,meteohub,2013-02-19 23:14:00,
2013-02-19 18:19:00,42.1,37.9,29.75,NW,315,2.0,3.0,85,0.00,,,0.01,meteohub,2013-02-19 23:19:00,
2013-02-19 18:24:00,42.1,38.1,29.75,West,270,1.0,2.0,86,0.00,,,0.01,meteohub,2013-02-19 23:24:00,
2013-02-19 18:29:00,42.1,38.1,29.75,NW,315,2.0,4.0,86,0.00,,,0.01,meteohub,2013-02-19 23:29:00,
2013-02-19 18:34:00,42.1,38.5,29.74,NW,315,1.0,4.0,87,0.00,,,0.01,meteohub,2013-02-19 23:34:00,
2013-02-19 18:39:00,42.3,39.0,29.75,West,270,1.0,4.0,88,0.01,,,0.02,meteohub,2013-02-19 23:39:00,
2013-02-19 18:44:00,42.1,38.8,29.75,South,180,0.0,2.0,88,0.01,,,0.02,meteohub,2013-02-19 23:44:00,
2013-02-19 18:49:00,42.1,38.8,29.74,West,270,0.0,2.0,88,0.02,,,0.04,meteohub,2013-02-19 23:49:00,
2013-02-19 18:54:00,41.7,38.5,29.74,West,270,1.0,2.0,88,0.02,,,0.04,meteohub,2013-02-19 23:54:00,
2013-02-19 18:59:00,41.5,38.3,29.73,West,270,0.0,2.0,88,0.02,,,0.04,meteohub,2013-02-19 23:59:00,
2013-02-19 19:04:00,41.0,37.8,29.72,West,270,1.0,2.0,88,0.04,,,0.05,meteohub,2013-02-20 00:04:00,
2013-02-19 19:10:00,41.0,37.9,29.73,West,270,2.0,2.0,89,0.04,,,0.05,meteohub,2013-02-20 00:10:00,
2013-02-19 19:15:00,41.0,37.9,29.72,West,270,1.0,2.0,89,0.05,,,0.06,meteohub,2013-02-20 00:15:00,
2013-02-19 19:20:00,41.2,38.5,29.72,West,270,2.0,2.0,90,0.05,,,0.07,meteohub,2013-02-20 00:20:00,
2013-02-19 19:25:00,41.4,38.7,29.71,West,270,4.0,4.0,90,0.06,,,0.08,meteohub,2013-02-20 00:25:00,
2013-02-19 19:30:00,41.5,38.8,29.70,NW,315,2.0,3.0,90,0.07,,,0.11,meteohub,2013-02-20 00:30:00,
2013-02-19 19:35:00,41.7,39.2,29.70,West,270,4.0,4.0,91,0.08,,,0.11,meteohub,2013-02-20 00:35:00,
2013-02-19 19:40:00,41.9,39.4,29.70,West,270,4.0,4.0,91,0.11,,,0.13,meteohub,2013-02-20 00:40:00,
2013-02-19 19:45:00,42.3,40.1,29.69,West,270,4.0,6.0,92,0.09,,,0.13,meteohub,2013-02-20 00:45:00,
2013-02-19 19:50:00,42.3,40.1,29.68,West,270,4.0,6.0,92,0.11,,,0.14,meteohub,2013-02-20 00:50:00,
2013-02-19 19:55:00,42.3,40.1,29.67,North,0,6.0,6.0,92,0.12,,,0.15,meteohub,2013-02-20 00:55:00,
2013-02-19 20:00:00,42.4,40.6,29.67,West,270,2.0,6.0,93,0.12,,,0.17,meteohub,2013-02-20 01:00:00,
2013-02-19 20:06:00,42.4,40.6,29.66,West,270,5.0,6.0,93,0.13,,,0.18,meteohub,2013-02-20 01:06:00,
2013-02-19 20:11:00,42.8,41.0,29.66,South,180,5.0,6.0,93,0.13,,,0.19,meteohub,2013-02-20 01:11:00,
2013-02-19 20:16:00,43.2,41.4,29.65,West,270,4.0,6.0,93,0.14,,,0.20,meteohub,2013-02-20 01:16:00,
2013-02-19 20:21:00,43.3,41.5,29.65,NW,315,5.0,5.0,93,0.12,,,0.20,meteohub,2013-02-20 01:21:00,
2013-02-19 20:26:00,43.3,41.5,29.64,West,270,3.0,5.0,93,0.13,,,0.21,meteohub,2013-02-20 01:26:00,
2013-02-19 20:31:00,43.5,41.9,29.63,NW,315,5.0,5.0,94,0.11,,,0.21,meteohub,2013-02-20 01:31:00,
2013-02-19 20:36:00,43.7,42.1,29.63,NW,315,4.0,8.0,94,0.11,,,0.22,meteohub,2013-02-20 01:36:00,
2013-02-19 20:41:00,43.9,42.3,29.64,West,270,2.0,8.0,94,0.09,,,0.22,meteohub,2013-02-20 01:41:00,
2013-02-19 20:46:00,43.5,41.9,29.62,West,270,2.0,8.0,94,0.09,,,0.22,meteohub,2013-02-20 01:46:00,
2013-02-19 20:51:00,43.5,41.9,29.62,West,270,4.0,5.0,94,0.08,,,0.22,meteohub,2013-02-20 01:51:00,
2013-02-19 20:56:00,43.5,41.9,29.61,NW,315,2.0,5.0,94,0.07,,,0.22,meteohub,2013-02-20 01:56:00,
2013-02-19 21:01:00,43.5,41.9,29.60,West,270,2.0,5.0,94,0.06,,,0.22,meteohub,2013-02-20 02:01:00,
2013-02-19 21:07:00,43.3,41.7,29.60,NW,315,1.0,4.0,94,0.05,,,0.22,meteohub,2013-02-20 02:07:00,
2013-02-19 21:12:00,43.3,41.7,29.59,NW,315,2.0,3.0,94,0.04,,,0.22,meteohub,2013-02-20 02:12:00,
2013-02-19 21:17:00,43.3,41.7,29.59,West,270,2.0,3.0,94,0.02,,,0.22,meteohub,2013-02-20 02:17:00,
2013-02-19 21:22:00,43.3,41.7,29.60,NW,315,2.0,3.0,94,0.02,,,0.22,meteohub,2013-02-20 02:22:00,
2013-02-19 21:27:00,43.3,41.7,29.61,West,270,2.0,2.0,94,0.01,,,0.22,meteohub,2013-02-20 02:27:00,
2013-02-19 21:32:00,43.3,41.7,29.60,NW,315,1.0,4.0,94,0.02,,,0.24,meteohub,2013-02-20 02:32:00,
2013-02-19 21:37:00,43.3,41.7,29.61,NW,315,4.0,4.0,94,0.02,,,0.25,meteohub,2013-02-20 02:37:00,
2013-02-19 21:42:00,43.3,41.7,29.60,West,270,1.0,4.0,94,0.04,,,0.26,meteohub,2013-02-20 02:42:00,
2013-02-19 21:47:00,43.3,41.7,29.60,NW,315,1.0,4.0,94,0.04,,,0.26,meteohub,2013-02-20 02:47:00,
2013-02-19 21:52:00,43.2,41.5,29.60,NW,315,0.0,4.0,94,0.05,,,0.27,meteohub,2013-02-20 02:52:00,
2013-02-19 21:57:00,43.0,41.4,29.59,NW,315,0.0,3.0,94,0.05,,,0.27,meteohub,2013-02-20 02:57:00,
2013-02-19 22:02:00,42.6,41.4,29.60,NW,315,0.0,3.0,95,0.06,,,0.28,meteohub,2013-02-20 03:02:00,
2013-02-19 22:07:00,42.3,41.0,29.59,West,270,2.0,3.0,95,0.06,,,0.28,meteohub,2013-02-20 03:07:00,
2013-02-19 22:12:00,42.1,40.8,29.60,West,270,0.0,2.0,95,0.06,,,0.28,meteohub,2013-02-20 03:12:00,
2013-02-19 22:17:00,42.1,40.8,29.60,West,270,0.0,2.0,95,0.07,,,0.30,meteohub,2013-02-20 03:17:00,
2013-02-19 22:22:00,41.7,40.5,29.59,West,270,2.0,2.0,95,0.07,,,0.30,meteohub,2013-02-20 03:22:00,
2013-02-19 22:27:00,41.9,40.6,29.59,West,270,0.0,2.0,95,0.06,,,0.30,meteohub,2013-02-20 03:27:00,
2013-02-19 22:32:00,41.7,40.5,29.59,WNW,293,2.0,2.0,95,0.06,,,0.30,meteohub,2013-02-20 03:32:00,
2013-02-19 22:37:00,41.7,40.5,29.58,East,90,0.0,2.0,95,0.05,,,0.30,meteohub,2013-02-20 03:37:00,
2013-02-19 22:42:00,41.7,40.5,29.57,East,90,0.0,2.0,95,0.05,,,0.31,meteohub,2013-02-20 03:42:00,
2013-02-19 22:47:00,41.5,40.3,29.57,West,270,0.0,2.0,95,0.04,,,0.31,meteohub,2013-02-20 03:47:00,
2013-02-19 22:52:00,41.5,40.3,29.56,NW,315,0.0,1.0,95,0.04,,,0.31,meteohub,2013-02-20 03:52:00,
2013-02-19 22:57:00,41.5,40.3,29.56,NW,315,0.0,1.0,95,0.04,,,0.31,meteohub,2013-02-20 03:57:00,
2013-02-19 23:02:00,41.4,40.1,29.57,NW,315,0.0,1.0,95,0.02,,,0.31,meteohub,2013-02-20 04:02:00,
2013-02-19 23:07:00,41.0,39.4,29.57,NW,315,0.0,1.0,94,0.02,,,0.31,meteohub,2013-02-20 04:07:00,
2013-02-19 23:12:00,40.8,39.6,29.57,NW,315,0.0,0.0,95,0.01,,,0.31,meteohub,2013-02-20 04:12:00,
2013-02-19 23:17:00,40.6,39.4,29.57,NW,315,0.0,0.0,95,0.01,,,0.31,meteohub,2013-02-20 04:17:00,
2013-02-19 23:22:00,40.5,39.2,29.57,NNW,338,1.0,0.0,95,0.01,,,0.31,meteohub,2013-02-20 04:22:00,
2013-02-19 23:27:00,40.5,39.2,29.57,NNW,338,0.0,2.0,95,0.01,,,0.31,meteohub,2013-02-20 04:27:00,
2013-02-19 23:32:00,40.6,39.4,29.57,NW,315,0.0,2.0,95,0.01,,,0.31,meteohub,2013-02-20 04:32:00,
2013-02-19 23:37:00,40.6,39.4,29.57,North,0,0.0,2.0,95,0.00,,,0.31,meteohub,2013-02-20 04:37:00,
2013-02-19 23:42:00,40.5,39.2,29.56,West,270,1.0,0.0,95,0.00,,,0.31,meteohub,2013-02-20 04:42:00,
2013-02-19 23:47:00,40.6,39.4,29.56,NE,45,0.0,2.0,95,0.00,,,0.31,meteohub,2013-02-20 04:47:00,
2013-02-19 23:52:00,40.6,39.4,29.56,NE,45,0.0,2.0,95,0.00,,,0.31,meteohub,2013-02-20 04:52:00,
2013-02-19 23:57:00,40.6,39.4,29.55,NE,45,0.0,2.0,95,0.00,,,0.31,meteohub,2013-02-20 04:57:00,